Location: Caltech
(34.1382°N, 118.1253°W)
Time: 05:28:01
(UTC-07:00)

JAS-2 - Visible Passes

Search period start: 02 October 2014 00:00
Search period end: 12 October 2014 00:00
Orbit: 800 x 1322 km, 98.5° (Epoch: 01 October)

Date Brightness Start Highest point End Pass type
(mag) Time Alt. Az. Time Alt. Az. Time Alt. Az.
02 Oct 11.7 05:48:10 10° NNE 05:54:29 36° E 06:01:18 10° SSE visible
02 Oct 12.8 19:31:41 10° WSW 19:32:54 11° W 19:34:07 10° WNW visible
03 Oct 13.0 04:56:26 10° ENE 04:59:10 12° E 05:01:58 10° ESE visible
04 Oct 11.8 05:43:20 10° NE 05:49:40 34° E 05:56:26 10° SSE visible
04 Oct 12.6 19:25:52 10° WSW 19:27:54 12° W 19:29:58 10° WNW visible
05 Oct 13.0 04:52:06 10° ENE 04:54:19 11° E 04:56:33 10° ESE visible
06 Oct 11.9 05:38:32 10° NE 05:44:51 32° E 05:51:32 10° SSE visible
06 Oct 12.5 19:20:19 10° WSW 19:22:54 14° W 19:25:34 10° WNW visible
07 Oct 13.1 04:48:03 10° ENE 04:49:27 11° E 04:50:52 10° E visible
08 Oct 12.0 05:33:45 10° NE 05:40:02 30° E 05:46:38 10° SSE visible
08 Oct 12.4 19:14:52 10° SW 19:17:54 15° W 19:21:04 10° NW visible
09 Oct 10.5 06:23:00 10° NNE 06:30:18 71° ESE 06:38:05 10° S visible
10 Oct 12.1 05:29:00 10° NE 05:35:13 29° E 05:41:42 10° SSE visible
10 Oct 12.4 19:09:30 10° SW 19:12:55 17° W 19:16:30 10° NW visible
11 Oct 10.6 06:18:08 10° NNE 06:25:31 67° ESE 06:33:18 10° S visible
